Theta_e
322 323 323 323 323 322 322 322 321 321 322 322 322 323 323 322 321 319 314 323 325 337 328 319 318 318 317 316 319 318 308 308 311 315 315 324 323 327 328 331 333 327 328 331 335
322 322 322 322 322 322 322 321 321 321 321 322 322 323 323 323 318 316 331 340 336 334 316 316 314 316 314 316 316 313 309 311 320 320 318 321 324 324 327 328 331 329 332 334 335
321 321 321 321 321 322 322 321 321 322 322 322 322 322 323 322 318 319 336 341 336 327 320 319 319 317 314 316 315 314 311 318 319 323 322 322 324 325 324 322 330 328 329 331 332
320 320 320 320 321 321 322 321 321 322 322 322 322 322 323 321 313 322 338 338 341 325 322 316 316 313 312 312 316 311 316 317 320 324 323 321 326 322 322 322 335 335 335 333 332
320 320 319 319 320 320 321 321 321 321 321 321 321 323 321 320 320 327 340 332 324 322 317 316 315 314 312 313 314 312 313 315 317 325 322 323 319 327 324 330 335 334 333 333 333
318 318 318 318 319 319 320 320 320 320 320 321 321 322 322 317 326 326 325 322 322 320 317 318 316 317 314 314 312 315 314 313 316 321 320 319 319 330 330 333 332 333 334 335 338
317 317 317 318 318 319 320 320 320 320 320 321 322 326 324 320 325 324 324 320 320 318 317 319 319 316 316 313 316 315 310 312 313 317 319 323 320 325 332 334 333 334 335 337 339
317 316 316 317 318 318 319 320 320 320 321 322 323 327 323 325 327 321 320 318 320 321 321 321 320 316 315 317 314 310 310 305 311 313 315 316 310 326 332 331 331 333 333 335 336
317 316 316 316 317 318 317 318 322 321 322 323 324 327 319 324 319 322 322 318 319 320 320 320 317 313 314 309 307 308 302 305 308 313 312 312 309 324 329 329 329 331 332 333 335
317 316 315 315 316 316 315 317 323 322 324 325 326 318 322 316 320 322 323 322 317 316 315 313 312 308 309 307 299 303 303 305 306 310 311 309 308 322 325 326 327 329 331 333 333
316 315 315 315 315 314 316 324 319 320 320 316 317 316 318 320 322 318 321 319 318 314 308 311 306 303 306 309 308 308 307 306 308 313 310 309 308 318 321 321 322 325 329 331 332
316 315 315 315 314 313 317 318 316 318 310 317 316 316 320 320 314 316 321 313 312 307 310 308 304 309 311 310 308 307 306 306 310 312 310 309 309 312 321 320 319 323 327 330 331
315 314 314 314 313 318 318 319 321 321 310 313 317 314 315 318 313 313 317 314 311 308 308 305 309 312 309 308 306 306 305 306 306 311 312 309 307 311 317 320 320 323 328 331 330
315 314 314 312 316 319 316 319 322 322 305 310 311 312 315 317 311 318 318 314 311 307 309 308 311 309 307 306 307 303 308 307 308 307 302 310 299 310 313 315 319 320 325 328 330
314 315 314 312 316 316 319 321 321 320 298 311 311 320 316 312 314 313 319 314 309 309 310 307 308 307 306 306 308 305 311 308 308 306 305 305 304 307 313 313 317 321 324 327 329
314 314 313 315 318 321 323 321 319 306 296 307 312 310 310 311 312 313 313 315 315 311 311 309 314 311 309 311 311 312 309 308 308 305 297 303 302 302 307 314 317 321 323 326 327
313 313 312 315 312 320 321 316 304 298 308 305 307 309 308 308 309 309 308 307 305 302 304 307 309 312 312 308 311 309 305 297 296 297 296 306 302 305 312 315 315 318 323 327 328
311 310 316 320 323 322 318 309 298 305 305 311 309 309 306 308 308 308 307 305 309 308 305 302 300 308 311 309 306 306 305 298 293 295 298 306 300 305 316 318 317 318 320 327 327
309 317 316 320 324 322 312 301 301 307 308 305 307 305 306 308 308 307 307 306 309 310 304 303 303 311 312 312 310 306 304 309 302 303 298 302 307 314 316 316 316 316 318 319 327
312 312 314 320 325 319 307 300 306 311 310 307 302 306 303 306 305 306 306 310 308 312 314 308 302 310 310 312 311 308 310 302 303 295 293 298 301 303 310 312 316 316 317 321 324
312 311 320 323 323 312 302 303 307 311 312 306 304 304 305 306 308 306 306 310 311 311 313 310 308 307 310 307 305 306 303 304 305 303 296 295 300 314 311 313 314 318 320 320 320
313 304 321 323 308 309 304 307 305 310 312 309 309 306 306 307 307 307 307 309 314 313 308 312 309 302 305 311 313 309 307 309 300 300 303 302 300 316 315 314 317 318 319 324 323
307 309 318 318 302 304 308 308 310 310 310 309 306 308 309 306 305 309 310 314 314 312 310 313 309 299 301 307 311 307 308 308 311 311 303 298 301 314 315 314 315 316 318 321 324
308 303 309 313 311 306 305 306 307 312 311 311 309 310 308 306 308 305 307 312 313 312 317 319 311 306 298 303 307 305 307 309 309 303 301 301 303 310 313 314 315 317 317 318 323
307 305 310 304 306 308 307 305 305 306 311 312 308 308 307 305 305 305 308 310 313 310 313 314 307 307 307 307 306 305 305 308 306 306 302 304 304 309 313 314 315 318 319 317 318
305 305 310 307 309 307 306 306 303 305 307 306 306 308 309 308 307 305 308 309 309 313 312 319 305 307 304 306 306 304 306 306 306 306 305 305 305 313 315 314 314 315 317 316 317
309 310 306 304 307 305 305 307 308 310 310 309 308 307 306 309 312 313 315 316 314 313 315 314 309 306 300 305 304 300 304 306 307 308 306 303 308 314 312 312 313 314 316 316 320
Wind_Speed
18 17 15 14 12 12 12 13 13 12 12 12 12 12 11 13 16 7 10 2 8 2 2 12 9 11 12 14 15 11 13 14 12 11 4 25 19 10 18 4 19 9 17 19 19
18 18 17 17 15 14 14 14 14 13 12 11 11 11 10 10 10 15 6 6 6 3 9 12 10 10 12 14 10 12 12 16 14 20 8 24 28 20 18 15 19 21 21 19 17
18 18 18 18 18 15 14 14 13 12 11 10 10 9 8 10 9 5 7 6 5 3 13 16 12 10 14 14 13 16 13 4 4 20 24 6 28 28 27 5 13 20 20 19 17
19 19 19 18 17 16 15 14 13 12 9 9 8 8 7 9 3 6 7 6 3 8 14 11 10 10 16 9 7 13 7 9 6 14 11 18 14 24 28 16 15 20 20 18 16
20 21 19 18 17 16 16 13 11 10 8 8 7 7 7 8 3 10 7 6 7 11 15 12 12 13 15 11 4 14 5 3 5 13 21 23 23 27 24 24 19 18 16 15 13
22 22 21 19 18 17 15 12 9 8 7 7 7 5 7 11 12 10 10 10 13 13 13 11 10 10 14 8 10 4 3 2 6 8 18 32 31 14 16 18 18 17 15 13 12
23 22 23 21 20 19 15 12 9 8 8 7 7 6 11 8 3 9 9 10 12 12 8 8 11 9 6 6 7 4 9 5 7 4 10 9 16 17 14 15 16 15 14 13 12
23 23 24 24 21 20 18 13 8 8 9 7 5 9 9 3 4 7 11 9 6 7 9 8 6 14 11 11 4 11 10 11 13 9 2 4 9 17 15 14 15 14 12 12 12
23 24 25 25 24 20 19 15 8 7 9 5 7 8 12 4 8 9 9 11 9 9 7 6 10 11 9 10 9 11 12 14 16 14 6 9 7 15 13 12 14 12 11 12 11
23 24 25 25 27 22 21 9 7 8 8 10 12 10 11 4 9 5 10 9 7 9 10 9 8 10 11 11 12 16 16 12 11 16 14 9 6 14 13 13 13 11 12 12 12
23 24 25 26 27 24 14 4 4 6 10 16 12 12 3 4 2 9 9 8 11 8 12 14 12 14 16 16 19 19 12 12 10 11 5 10 10 17 14 12 13 12 12 12 12
25 26 28 28 30 29 7 9 9 11 14 16 21 19 8 1 7 11 11 11 11 13 14 13 13 16 15 16 15 16 12 10 3 9 1 7 14 17 17 12 12 15 14 13 15
23 24 27 30 32 11 11 6 8 12 9 17 18 15 13 11 12 11 14 14 12 13 15 15 18 17 17 10 8 9 12 12 16 3 0 11 16 12 13 12 13 13 15 16 17
22 24 25 32 7 15 10 10 12 9 7 11 8 9 12 11 13 14 14 14 11 14 15 10 18 5 4 11 12 12 15 17 5 3 9 17 11 15 20 16 14 15 14 15 16
22 23 22 12 12 10 16 13 12 8 7 9 11 6 10 12 4 11 12 16 14 13 7 11 12 4 12 14 14 14 15 14 5 10 12 14 10 14 18 17 17 15 13 14 16
25 25 21 10 9 17 16 14 10 8 8 7 5 8 12 14 11 9 10 15 11 15 8 18 3 6 13 10 2 9 3 5 6 10 12 17 16 12 8 16 14 17 17 15 16
24 27 18 10 8 16 14 9 7 8 4 6 6 12 14 15 15 11 13 13 13 9 13 13 8 11 2 3 5 4 7 7 11 11 14 17 18 13 13 11 9 5 17 16 16
25 29 12 12 12 12 9 9 11 13 8 5 3 7 12 14 12 11 12 15 16 17 14 12 14 17 10 13 9 16 12 10 13 11 10 4 7 7 14 12 8 9 6 12 18
28 11 11 12 16 7 7 11 12 15 9 4 8 9 11 13 14 15 14 15 15 15 12 12 11 16 16 11 12 10 10 10 10 12 13 13 6 11 11 11 7 5 3 6 14
12 11 14 16 8 6 9 16 21 19 10 6 11 12 13 14 14 15 14 14 16 14 9 11 11 9 8 3 7 9 11 8 5 11 15 13 16 8 10 9 9 3 3 4 7
7 7 3 11 5 8 13 17 19 20 17 7 14 15 18 14 11 15 16 12 13 16 8 9 5 13 11 9 12 11 11 12 12 9 10 10 3 7 8 5 3 5 5 7 8
6 6 10 5 8 9 15 21 20 22 7 8 11 14 16 17 14 16 13 17 10 16 12 13 4 12 18 7 13 15 14 8 9 13 11 11 11 9 4 1 7 6 6 10 11
6 11 9 6 10 13 16 22 22 21 14 14 12 16 13 14 14 14 14 8 8 6 5 6 7 11 16 15 8 12 15 12 11 8 12 12 10 14 4 2 3 6 8 9 13
7 6 9 9 11 17 18 18 19 16 14 12 15 14 14 14 14 15 16 12 5 4 6 6 6 11 13 15 13 12 15 17 14 11 13 16 18 14 7 10 8 6 5 10 9
6 7 10 6 13 16 18 18 18 17 16 15 15 19 15 15 17 16 15 19 9 7 2 2 11 16 19 20 23 24 19 15 17 17 16 14 18 15 15 6 7 8 10 10 7
7 5 8 12 14 14 13 18 21 19 18 16 18 17 16 18 17 16 18 16 15 13 11 8 8 13 21 23 26 28 23 23 17 19 20 18 17 13 12 12 12 5 11 7 5
8 13 8 8 13 12 14 15 16 16 17 21 18 17 15 17 17 17 13 13 17 17 12 11 11 11 17 18 22 27 21 22 19 21 19 20 17 13 12 2 1 2 1 3 13
Wind_Direction
352 344 343 337 332 328 321 319 315 308 306 306 309 308 314 314 298 236 254 249 189 105 329 266 225 241 241 258 255 248 272 257 257 72 329 108 115 147 167 41 69 101 147 126 145
349 344 344 341 342 334 326 321 310 302 295 297 299 305 316 319 275 265 165 129 115 54 254 228 213 220 231 233 216 232 244 274 71 91 42 252 142 146 78 19 92 105 116 137 149
348 346 344 344 345 333 324 309 295 287 283 291 297 307 309 296 269 212 169 157 123 249 266 287 291 210 242 248 221 219 260 191 335 125 180 122 57 98 83 38 124 131 139 148 156
348 346 345 341 342 332 316 300 287 282 287 291 296 306 297 254 338 98 168 138 191 284 272 256 252 233 252 232 252 276 352 11 12 44 52 23 130 100 112 225 141 143 146 152 158
346 346 343 342 340 334 314 294 287 283 291 287 293 286 265 232 234 132 164 164 223 235 250 245 228 240 257 225 198 256 125 336 267 87 72 33 302 124 160 188 130 126 134 143 137
344 345 343 340 341 336 317 299 283 273 277 274 266 275 246 268 99 142 179 192 243 220 237 264 246 269 306 285 224 286 103 229 279 79 128 149 236 114 117 125 131 124 116 108 108
342 343 340 340 341 335 323 317 289 276 266 254 254 271 260 291 111 159 208 213 227 236 255 259 330 306 251 265 267 338 262 200 251 164 144 163 168 123 136 128 120 117 104 104 103
340 341 339 339 339 333 329 322 308 281 273 260 253 261 273 78 315 185 204 216 207 248 297 351 280 283 281 287 225 249 239 237 209 213 181 292 357 126 148 137 133 131 130 126 125
341 338 336 334 333 333 326 315 302 280 260 249 243 229 263 120 216 209 206 201 200 237 243 306 252 251 250 258 230 224 254 233 259 170 211 184 236 151 168 160 151 146 147 136 124
340 337 334 333 328 333 320 277 325 284 216 235 257 275 248 248 183 195 226 290 186 220 229 225 239 239 236 219 243 213 210 249 242 178 191 218 237 139 176 181 158 170 169 150 151
338 335 332 331 325 330 332 268 242 203 234 262 298 229 269 179 129 231 209 212 244 227 231 205 227 225 230 231 249 272 297 222 256 81 162 204 243 173 180 186 183 187 169 170 146
338 336 333 330 322 318 264 296 20 309 302 275 264 256 262 269 227 210 194 218 210 232 214 240 223 248 236 253 236 270 274 287 167 109 156 281 258 256 171 194 223 183 178 177 133
336 335 330 328 318 293 289 7 308 310 285 290 226 231 223 219 244 200 194 222 224 229 240 237 245 201 246 238 259 261 257 259 266 124 324 266 259 246 207 186 215 201 185 177 154
333 332 331 332 303 331 293 357 327 2 274 219 200 226 198 194 229 247 184 229 239 247 246 229 254 168 247 250 242 248 230 253 306 183 256 209 247 227 219 191 204 216 189 173 158
330 330 331 320 304 303 332 327 338 285 275 170 130 94 173 197 118 190 184 227 263 246 301 234 235 178 239 234 228 250 332 213 242 253 267 267 234 273 173 187 208 197 193 173 161
326 325 337 313 262 263 287 326 296 239 245 138 153 196 213 209 222 168 192 234 242 281 217 268 232 197 240 212 221 57 291 287 259 272 256 251 262 275 249 176 203 193 194 181 168
319 314 314 298 267 328 314 299 245 243 109 205 187 191 214 200 229 168 204 204 232 226 229 231 201 256 29 261 180 283 257 241 232 231 242 245 228 237 131 110 60 177 179 166 162
317 308 269 250 267 282 289 271 255 272 279 85 349 196 238 219 208 195 204 225 221 253 281 225 210 194 176 245 217 209 235 256 270 283 313 76 288 288 119 126 118 116 118 171 164
311 296 273 249 228 245 261 243 237 247 287 308 228 236 244 241 246 199 217 227 236 213 254 291 289 183 176 207 253 274 251 258 280 301 286 282 212 126 114 96 82 109 159 204 154
321 297 260 251 146 228 240 246 269 276 318 308 279 280 247 235 232 234 214 219 255 259 184 255 292 169 172 242 255 256 287 292 204 254 267 270 263 102 156 150 127 130 173 173 158
275 255 163 181 163 222 233 243 248 255 267 256 272 279 282 289 238 223 234 244 210 244 169 249 250 278 153 193 246 220 230 247 276 291 303 298 276 140 108 104 118 133 175 161 176
265 256 143 200 217 229 237 241 258 281 285 246 266 283 291 297 290 292 279 222 316 203 228 198 249 254 271 254 230 234 259 236 223 240 247 260 267 63 95 310 156 173 183 177 178
261 256 267 205 241 236 247 247 255 261 240 257 243 257 268 273 281 282 291 340 1 305 224 215 214 248 256 267 210 240 242 250 267 289 275 278 280 305 145 252 234 206 208 201 175
274 265 213 205 248 268 279 268 252 237 259 255 267 253 257 261 257 263 267 261 176 235 65 6 258 251 248 255 274 206 252 249 255 246 254 250 264 269 215 199 212 223 215 260 166
249 257 313 261 224 233 247 266 271 260 236 228 250 259 253 259 263 260 253 265 167 150 201 223 255 256 257 261 275 280 267 223 247 247 250 258 270 287 302 304 185 220 205 218 178
293 255 311 285 284 291 275 237 248 263 276 265 249 238 253 249 257 266 275 271 267 185 202 194 246 257 262 262 265 268 264 268 255 267 274 261 265 282 273 246 264 158 166 178 223
257 275 272 284 282 253 253 260 250 258 258 263 267 279 256 251 270 277 281 294 273 284 205 204 209 229 258 268 270 258 264 267 271 249 262 276 290 298 287 259 299 241 321 116 100